No particular awareness of the weather is required.    There are no Weather-warnings


Meteo18 Weather Cam more information Meteo18 Weather Cam


Thunder radar more information blitzortung!


Rain radar more information rain snow radar


Visit our other weather sites:

Template documentation
and downloads

And another site



Weather Underground History page Text

Daily Summary for June 18, 2017 Units:  Metric    English   Both
« Previous Day
Next Day »
Daily Weekly Monthly Yearly Custom
  High: Low: Average:
Temperature: 29.5 °C 16.1 °C 23.2 °C
Dew Point: 16.7 °C 13.3 °C 14.8 °C
Humidity: 84 % 42 % 61 %
Wind Speed: 30.6 km/h 0.0 km/h 10.1 km/h
Wind Gust: 33.8 km/h - -
Wind:- - ENE
Pressure: 1024.6 hPa 1018.8 hPa -
Precipitation: 0.0 mm    
Historical Graphs
 
 
Tabular Data for June 18, 2017
Time Temperature Dew Point Pressure Wind Wind Speed Wind Gust Humidity Rainfall Rate (Hourly)
00:02 19.4 °C 14.2 °C 1024.6 hPa NNE 11.3 km/h 19.3 km/h 72 % 0.0 mm
00:07 19.4 °C 14.2 °C 1024.6 hPa NW 6.4 km/h 19.3 km/h 72 % 0.0 mm
00:12 19.3 °C 14.3 °C 1024.6 hPa NNE 4.8 km/h 19.3 km/h 73 % 0.0 mm
00:17 19.3 °C 14.3 °C 1024.6 hPa NE 11.3 km/h 19.3 km/h 73 % 0.0 mm
00:22 19.3 °C 14.3 °C 1024.6 hPa North 6.4 km/h 17.7 km/h 73 % 0.0 mm
00:32 19.1 °C 14.1 °C 1024.6 hPa NE 4.8 km/h 17.7 km/h 73 % 0.0 mm
00:42 18.9 °C 14.2 °C 1024.6 hPa NE 3.2 km/h 12.9 km/h 74 % 0.0 mm
00:47 18.9 °C 14.2 °C 1024.6 hPa NNW 4.8 km/h 12.9 km/h 74 % 0.0 mm
00:52 18.8 °C 14.3 °C 1024.6 hPa NNE 3.2 km/h 12.9 km/h 75 % 0.0 mm
00:57 18.8 °C 14.3 °C 1024.3 hPa NNW 4.8 km/h 14.5 km/h 75 % 0.0 mm
01:02 18.7 °C 14.2 °C 1024.3 hPa ENE 4.8 km/h 14.5 km/h 75 % 0.0 mm
01:07 18.6 °C 14.1 °C 1024.3 hPa NW 6.4 km/h 14.5 km/h 75 % 0.0 mm
01:12 18.6 °C 14.3 °C 1024.3 hPa ENE 6.4 km/h 16.1 km/h 76 % 0.0 mm
01:17 18.7 °C 14.2 °C 1024.3 hPa North 4.8 km/h 17.7 km/h 75 % 0.0 mm
01:22 18.5 °C 14.2 °C 1024.3 hPa NE 8.0 km/h 20.9 km/h 76 % 0.0 mm
01:27 18.4 °C 14.1 °C 1024.3 hPa North 8.0 km/h 20.9 km/h 76 % 0.0 mm
01:37 18.5 °C 14.2 °C 1024.3 hPa NE 12.9 km/h 17.7 km/h 76 % 0.0 mm
01:42 18.6 °C 14.3 °C 1024.3 hPa NNE 12.9 km/h 19.3 km/h 76 % 0.0 mm
01:47 18.5 °C 14.2 °C 1024.3 hPa NNE 9.7 km/h 19.3 km/h 76 % 0.0 mm
01:52 18.4 °C 14.3 °C 1024.3 hPa NNE 9.7 km/h 19.3 km/h 77 % 0.0 mm
01:57 18.4 °C 14.3 °C 1024.3 hPa NE 8.0 km/h 20.9 km/h 77 % 0.0 mm
02:02 18.3 °C 14.2 °C 1024.3 hPa NE 12.9 km/h 20.9 km/h 77 % 0.0 mm
02:07 18.2 °C 14.1 °C 1024.3 hPa NE 8.0 km/h 20.9 km/h 77 % 0.0 mm
02:12 18.1 °C 14.2 °C 1023.9 hPa NE 6.4 km/h 17.7 km/h 78 % 0.0 mm
02:17 17.9 °C 14.2 °C 1023.9 hPa NNE 9.7 km/h 12.9 km/h 79 % 0.0 mm
02:22 17.8 °C 14.1 °C 1023.9 hPa NE 4.8 km/h 12.9 km/h 79 % 0.0 mm
02:32 17.6 °C 14.1 °C 1023.9 hPa NNE 3.2 km/h 12.9 km/h 80 % 0.0 mm
02:37 17.4 °C 13.9 °C 1023.9 hPa NNE 3.2 km/h 8.0 km/h 80 % 0.0 mm
02:42 17.4 °C 13.9 °C 1023.9 hPa NE 4.8 km/h 11.3 km/h 80 % 0.0 mm
02:47 17.4 °C 13.9 °C 1023.9 hPa NNE 3.2 km/h 11.3 km/h 80 % 0.0 mm
02:52 17.3 °C 14.0 °C 1023.9 hPa NNE 3.2 km/h 11.3 km/h 81 % 0.0 mm
02:57 17.4 °C 14.1 °C 1023.9 hPa NE 11.3 km/h 11.3 km/h 81 % 0.0 mm
03:02 17.5 °C 14.2 °C 1023.6 hPa North 6.4 km/h 11.3 km/h 81 % 0.0 mm
03:07 17.5 °C 14.2 °C 1023.6 hPa NE 8.0 km/h 16.1 km/h 81 % 0.0 mm
03:12 17.6 °C 14.1 °C 1023.6 hPa NE 9.7 km/h 16.1 km/h 80 % 0.0 mm
03:17 17.6 °C 14.1 °C 1023.6 hPa NE 8.0 km/h 16.1 km/h 80 % 0.0 mm
03:22 17.6 °C 14.1 °C 1023.6 hPa NNW 8.0 km/h 14.5 km/h 80 % 0.0 mm
03:32 17.5 °C 14.2 °C 1023.6 hPa NNE 8.0 km/h 12.9 km/h 81 % 0.0 mm
03:37 17.4 °C 14.1 °C 1023.6 hPa ENE 6.4 km/h 12.9 km/h 81 % 0.0 mm
03:42 17.4 °C 14.1 °C 1023.6 hPa NNE 3.2 km/h 12.9 km/h 81 % 0.0 mm
03:47 17.3 °C 14.0 °C 1023.6 hPa NE 6.4 km/h 11.3 km/h 81 % 0.0 mm
03:52 17.3 °C 14.0 °C 1023.6 hPa NE 8.0 km/h 16.1 km/h 81 % 0.0 mm
03:57 17.2 °C 13.9 °C 1023.2 hPa NE 11.3 km/h 16.1 km/h 81 % 0.0 mm
04:02 17.2 °C 14.1 °C 1023.2 hPa NE 8.0 km/h 16.1 km/h 82 % 0.0 mm
04:07 17.2 °C 14.1 °C 1023.2 hPa NE 6.4 km/h 16.1 km/h 82 % 0.0 mm
04:12 17.2 °C 14.1 °C 1023.2 hPa NNW 3.2 km/h 16.1 km/h 82 % 0.0 mm
04:17 17.2 °C 14.1 °C 1023.2 hPa NE 3.2 km/h 12.9 km/h 82 % 0.0 mm
04:22 17.1 °C 14.0 °C 1023.2 hPa NE 4.8 km/h 16.1 km/h 82 % 0.0 mm
04:27 17.0 °C 13.9 °C 1023.2 hPa North 8.0 km/h 16.1 km/h 82 % 0.0 mm
04:32 16.9 °C 13.8 °C 1023.2 hPa ENE 3.2 km/h 16.1 km/h 82 % 0.0 mm
04:37 16.8 °C 13.9 °C 1023.2 hPa WNW 1.6 km/h 11.3 km/h 83 % 0.0 mm
04:42 16.7 °C 13.8 °C 1023.2 hPa NE 3.2 km/h 9.7 km/h 83 % 0.0 mm
04:47 16.7 °C 13.8 °C 1022.9 hPa NNW 1.6 km/h 9.7 km/h 83 % 0.0 mm
04:52 16.7 °C 13.8 °C 1022.9 hPa ENE 3.2 km/h 9.7 km/h 83 % 0.0 mm
05:02 16.5 °C 13.6 °C 1022.9 hPa NE 3.2 km/h 12.9 km/h 83 % 0.0 mm
05:07 16.4 °C 13.5 °C 1022.9 hPa NE 4.8 km/h 12.9 km/h 83 % 0.0 mm
05:12 16.3 °C 13.6 °C 1022.6 hPa NNE 6.4 km/h 12.9 km/h 84 % 0.0 mm
05:17 16.4 °C 13.7 °C 1022.6 hPa NNW 8.0 km/h 12.9 km/h 84 % 0.0 mm
05:22 16.4 °C 13.5 °C 1022.6 hPa North 3.2 km/h 12.9 km/h 83 % 0.0 mm
05:32 16.3 °C 13.4 °C 1022.6 hPa NE 4.8 km/h 16.1 km/h 83 % 0.0 mm
05:42 16.4 °C 13.5 °C 1022.6 hPa NE 6.4 km/h 11.3 km/h 83 % 0.0 mm
05:52 16.2 °C 13.3 °C 1022.6 hPa Calm   14.5 km/h 83 % 0.0 mm
05:57 16.2 °C 13.5 °C 1022.6 hPa NNW 1.6 km/h 14.5 km/h 84 % 0.0 mm
06:02 16.2 °C 13.3 °C 1022.6 hPa North 4.8 km/h 14.5 km/h 83 % 0.0 mm
06:12 16.2 °C 13.3 °C 1022.6 hPa North 1.6 km/h 9.7 km/h 83 % 0.0 mm
06:17 16.1 °C 13.4 °C 1022.6 hPa Calm   11.3 km/h 84 % 0.0 mm
06:27 16.2 °C 13.5 °C 1022.6 hPa NNE 3.2 km/h 11.3 km/h 84 % 0.0 mm
06:32 16.2 °C 13.5 °C 1022.6 hPa NE 3.2 km/h 11.3 km/h 84 % 0.0 mm
06:42 16.6 °C 13.7 °C 1022.2 hPa NNE 6.4 km/h 11.3 km/h 83 % 0.0 mm
06:47 16.7 °C 13.6 °C 1022.2 hPa Calm   9.7 km/h 82 % 0.0 mm
06:52 16.9 °C 13.8 °C 1022.2 hPa NNE 4.8 km/h 9.7 km/h 82 % 0.0 mm
07:02 17.2 °C 13.7 °C 1022.2 hPa NNE 4.8 km/h 8.0 km/h 80 % 0.0 mm
07:12 17.4 °C 13.9 °C 1022.2 hPa NNE 8.0 km/h 12.9 km/h 80 % 0.0 mm
07:22 17.7 °C 14.0 °C 1022.2 hPa NE 14.5 km/h 14.5 km/h 79 % 0.0 mm
07:32 17.9 °C 13.8 °C 1022.2 hPa NE 12.9 km/h 17.7 km/h 77 % 0.0 mm
07:42 18.1 °C 14.0 °C 1022.2 hPa ENE 11.3 km/h 22.5 km/h 77 % 0.0 mm
07:47 18.1 °C 14.0 °C 1022.2 hPa NE 6.4 km/h 24.1 km/h 77 % 0.0 mm
07:52 18.2 °C 14.1 °C 1022.2 hPa NE 9.7 km/h 24.1 km/h 77 % 0.0 mm
08:02 18.3 °C 14.2 °C 1022.2 hPa ENE 14.5 km/h 22.5 km/h 77 % 0.0 mm
08:12 18.6 °C 14.3 °C 1022.2 hPa ENE 3.2 km/h 20.9 km/h 76 % 0.0 mm
08:17 18.6 °C 14.3 °C 1022.2 hPa ENE 4.8 km/h 19.3 km/h 76 % 0.0 mm
08:22 18.7 °C 14.2 °C 1022.2 hPa NNE 6.4 km/h 19.3 km/h 75 % 0.0 mm
08:27 18.8 °C 14.3 °C 1022.2 hPa NE 14.5 km/h 19.3 km/h 75 % 0.0 mm
08:32 18.9 °C 14.4 °C 1022.2 hPa NNE 8.0 km/h 19.3 km/h 75 % 0.0 mm
08:42 19.3 °C 14.5 °C 1022.2 hPa NE 9.7 km/h 16.1 km/h 74 % 0.0 mm
08:47 19.6 °C 14.8 °C 1022.2 hPa NE 8.0 km/h 16.1 km/h 74 % 0.0 mm
08:52 19.7 °C 14.5 °C 1022.2 hPa NE 8.0 km/h 16.1 km/h 72 % 0.0 mm
09:02 20.0 °C 14.4 °C 1022.2 hPa ENE 8.0 km/h 17.7 km/h 70 % 0.0 mm
09:12 20.4 °C 14.3 °C 1022.2 hPa ENE 8.0 km/h 22.5 km/h 68 % 0.0 mm
09:17 20.7 °C 14.6 °C 1022.2 hPa NE 19.3 km/h 20.9 km/h 68 % 0.0 mm
09:22 20.8 °C 14.2 °C 1022.2 hPa North 19.3 km/h 20.9 km/h 66 % 0.0 mm
09:32 21.1 °C 14.5 °C 1022.2 hPa ENE 8.0 km/h 22.5 km/h 66 % 0.0 mm
09:42 21.3 °C 14.2 °C 1022.2 hPa NE 8.0 km/h 27.4 km/h 64 % 0.0 mm
09:52 21.7 °C 14.1 °C 1022.2 hPa NNE 9.7 km/h 25.7 km/h 62 % 0.0 mm
10:02 22.1 °C 14.0 °C 1022.2 hPa NNE 8.0 km/h 25.7 km/h 60 % 0.0 mm
10:07 22.1 °C 14.0 °C 1022.2 hPa NE 16.1 km/h 27.4 km/h 60 % 0.0 mm
10:12 22.2 °C 13.8 °C 1022.2 hPa NE 14.5 km/h 27.4 km/h 59 % 0.0 mm
10:17 22.3 °C 13.6 °C 1022.2 hPa NE 17.7 km/h 30.6 km/h 58 % 0.0 mm
10:22 22.4 °C 13.7 °C 1022.2 hPa ENE 11.3 km/h 30.6 km/h 58 % 0.0 mm
10:32 22.9 °C 13.7 °C 1022.2 hPa ENE 17.7 km/h 30.6 km/h 56 % 0.0 mm
10:42 22.6 °C 13.9 °C 1022.2 hPa ENE 25.7 km/h 29.0 km/h 58 % 0.0 mm
10:52 23.0 °C 14.0 °C 1021.9 hPa North 22.5 km/h 32.2 km/h 57 % 0.0 mm
11:02 22.9 °C 13.9 °C 1021.9 hPa NNE 12.9 km/h 30.6 km/h 57 % 0.0 mm
11:12 23.2 °C 13.9 °C 1021.9 hPa NE 17.7 km/h 30.6 km/h 56 % 0.0 mm
11:17 23.3 °C 14.3 °C 1021.6 hPa NE 17.7 km/h 30.6 km/h 57 % 0.0 mm
11:22 23.7 °C 14.1 °C 1021.6 hPa NNE 19.3 km/h 30.6 km/h 55 % 0.0 mm
11:32 23.7 °C 14.4 °C 1021.6 hPa East 9.7 km/h 27.4 km/h 56 % 0.0 mm
11:42 23.9 °C 14.0 °C 1021.6 hPa NE 8.0 km/h 27.4 km/h 54 % 0.0 mm
11:47 24.1 °C 14.2 °C 1021.6 hPa NE 11.3 km/h 29.0 km/h 54 % 0.0 mm
11:52 24.2 °C 14.0 °C 1021.6 hPa NNE 8.0 km/h 29.0 km/h 53 % 0.0 mm
12:02 24.6 °C 14.4 °C 1021.6 hPa ENE 16.1 km/h 29.0 km/h 53 % 0.0 mm
12:07 24.7 °C 14.2 °C 1021.6 hPa NE 9.7 km/h 29.0 km/h 52 % 0.0 mm
12:12 25.0 °C 14.8 °C 1021.6 hPa NE 16.1 km/h 27.4 km/h 53 % 0.0 mm
12:17 25.3 °C 14.7 °C 1021.6 hPa NE 12.9 km/h 27.4 km/h 52 % 0.0 mm
12:22 25.3 °C 14.7 °C 1021.6 hPa NE 12.9 km/h 25.7 km/h 52 % 0.0 mm
12:27 25.4 °C 14.2 °C 1021.6 hPa NE 11.3 km/h 25.7 km/h 50 % 0.0 mm
12:32 25.4 °C 13.9 °C 1021.6 hPa East 11.3 km/h 25.7 km/h 49 % 0.0 mm
12:42 25.6 °C 14.4 °C 1021.6 hPa East 22.5 km/h 30.6 km/h 50 % 0.0 mm
12:47 25.8 °C 14.3 °C 1021.2 hPa NE 14.5 km/h 27.4 km/h 49 % 0.0 mm
12:52 25.7 °C 14.2 °C 1021.2 hPa ENE 9.7 km/h 27.4 km/h 49 % 0.0 mm
12:57 26.1 °C 14.2 °C 1021.2 hPa NE 22.5 km/h 27.4 km/h 48 % 0.0 mm
13:02 26.0 °C 14.1 °C 1021.2 hPa East 9.7 km/h 27.4 km/h 48 % 0.0 mm
13:07 26.2 °C 14.6 °C 1020.9 hPa North 8.0 km/h 25.7 km/h 49 % 0.0 mm
13:12 26.4 °C 14.2 °C 1020.9 hPa ENE 16.1 km/h 32.2 km/h 47 % 0.0 mm
13:17 26.4 °C 14.2 °C 1020.9 hPa East 16.1 km/h 32.2 km/h 47 % 0.0 mm
13:22 26.6 °C 14.0 °C 1020.9 hPa ENE 17.7 km/h 32.2 km/h 46 % 0.0 mm
13:27 26.7 °C 14.1 °C 1020.9 hPa ENE 25.7 km/h 29.0 km/h 46 % 0.0 mm
13:32 26.8 °C 14.9 °C 1020.9 hPa ENE 11.3 km/h 29.0 km/h 48 % 0.0 mm
13:37 27.1 °C 14.8 °C 1020.9 hPa NE 17.7 km/h 29.0 km/h 47 % 0.0 mm
13:42 26.8 °C 14.5 °C 1020.9 hPa East 11.3 km/h 27.4 km/h 47 % 0.0 mm
13:47 27.1 °C 14.5 °C 1020.9 hPa ENE 9.7 km/h 27.4 km/h 46 % 0.0 mm
13:52 27.2 °C 14.2 °C 1020.9 hPa ENE 16.1 km/h 27.4 km/h 45 % 0.0 mm
13:57 27.3 °C 14.7 °C 1020.5 hPa NE 8.0 km/h 25.7 km/h 46 % 0.0 mm
14:02 27.4 °C 14.8 °C 1020.5 hPa NE 19.3 km/h 25.7 km/h 46 % 0.0 mm
14:07 27.3 °C 14.7 °C 1020.5 hPa NE 8.0 km/h 29.0 km/h 46 % 0.0 mm
14:12 27.5 °C 14.8 °C 1020.5 hPa NNE 19.3 km/h 29.0 km/h 46 % 0.0 mm
14:17 27.5 °C 14.5 °C 1020.5 hPa NE 19.3 km/h 29.0 km/h 45 % 0.0 mm
14:22 27.6 °C 14.9 °C 1020.5 hPa NE 19.3 km/h 30.6 km/h 46 % 0.0 mm
14:27 27.7 °C 14.7 °C 1020.5 hPa NNE 16.1 km/h 30.6 km/h 45 % 0.0 mm
14:32 28.0 °C 15.0 °C 1020.2 hPa NNE 16.1 km/h 30.6 km/h 45 % 0.0 mm
14:37 28.0 °C 15.0 °C 1020.2 hPa NE 12.9 km/h 30.6 km/h 45 % 0.0 mm
14:42 28.2 °C 15.1 °C 1020.2 hPa NE 4.8 km/h 30.6 km/h 45 % 0.0 mm
14:47 28.4 °C 14.6 °C 1020.2 hPa NE 19.3 km/h 30.6 km/h 43 % 0.0 mm
14:52 28.5 °C 15.1 °C 1020.2 hPa NE 9.7 km/h 29.0 km/h 44 % 0.0 mm
14:57 28.6 °C 15.2 °C 1020.2 hPa NNE 30.6 km/h 30.6 km/h 44 % 0.0 mm
15:02 28.2 °C 14.8 °C 1020.2 hPa NNE 11.3 km/h 29.0 km/h 44 % 0.0 mm
15:07 28.6 °C 15.2 °C 1020.2 hPa NNE 12.9 km/h 33.8 km/h 44 % 0.0 mm
15:12 28.4 °C 15.0 °C 1020.2 hPa ENE 14.5 km/h 33.8 km/h 44 % 0.0 mm
15:17 28.7 °C 14.9 °C 1020.2 hPa ENE 14.5 km/h 24.1 km/h 43 % 0.0 mm
15:22 28.4 °C 15.0 °C 1020.2 hPa NNE 11.3 km/h 27.4 km/h 44 % 0.0 mm
15:27 28.7 °C 14.9 °C 1019.9 hPa East 16.1 km/h 27.4 km/h 43 % 0.0 mm
15:32 28.8 °C 15.0 °C 1019.9 hPa NE 14.5 km/h 27.4 km/h 43 % 0.0 mm
15:37 28.9 °C 14.7 °C 1019.9 hPa NE 9.7 km/h 24.1 km/h 42 % 0.0 mm
15:42 28.8 °C 15.3 °C 1019.9 hPa East 24.1 km/h 25.7 km/h 44 % 0.0 mm
15:47 28.9 °C 14.7 °C 1019.9 hPa ENE 17.7 km/h 25.7 km/h 42 % 0.0 mm
15:52 28.8 °C 15.3 °C 1019.9 hPa NE 8.0 km/h 25.7 km/h 44 % 0.0 mm
15:57 28.8 °C 14.6 °C 1019.9 hPa NE 11.3 km/h 25.7 km/h 42 % 0.0 mm
16:02 29.1 °C 15.6 °C 1019.9 hPa ENE 9.7 km/h 25.7 km/h 44 % 0.0 mm
16:07 29.2 °C 15.0 °C 1019.9 hPa NE 12.9 km/h 25.7 km/h 42 % 0.0 mm
16:12 29.1 °C 14.9 °C 1019.9 hPa NE 11.3 km/h 30.6 km/h 42 % 0.0 mm
16:17 29.0 °C 15.2 °C 1019.9 hPa ENE 11.3 km/h 30.6 km/h 43 % 0.0 mm
16:22 29.3 °C 15.4 °C 1019.9 hPa NNE 11.3 km/h 24.1 km/h 43 % 0.0 mm
16:27 29.3 °C 15.4 °C 1019.5 hPa NE 14.5 km/h 22.5 km/h 43 % 0.0 mm
16:32 29.5 °C 16.0 °C 1019.9 hPa NNE 9.7 km/h 22.5 km/h 44 % 0.0 mm
16:37 29.3 °C 15.1 °C 1019.5 hPa NE 8.0 km/h 29.0 km/h 42 % 0.0 mm
16:42 29.3 °C 15.4 °C 1019.5 hPa ENE 19.3 km/h 29.0 km/h 43 % 0.0 mm
16:47 29.2 °C 16.4 °C 1019.5 hPa North 8.0 km/h 25.7 km/h 46 % 0.0 mm
16:52 29.2 °C 16.4 °C 1019.5 hPa ENE 16.1 km/h 25.7 km/h 46 % 0.0 mm
16:57 29.2 °C 15.3 °C 1019.5 hPa NNE 8.0 km/h 25.7 km/h 43 % 0.0 mm
17:02 29.4 °C 16.2 °C 1019.5 hPa NE 14.5 km/h 25.7 km/h 45 % 0.0 mm
17:12 29.1 °C 15.6 °C 1019.5 hPa NE 8.0 km/h 30.6 km/h 44 % 0.0 mm
17:17 29.1 °C 16.3 °C 1019.5 hPa NE 8.0 km/h 30.6 km/h 46 % 0.0 mm
17:22 29.2 °C 16.4 °C 1019.2 hPa ENE 11.3 km/h 22.5 km/h 46 % 0.0 mm
17:32 29.4 °C 15.9 °C 1019.2 hPa NE 17.7 km/h 24.1 km/h 44 % 0.0 mm
17:37 29.2 °C 16.0 °C 1019.2 hPa NNE 9.7 km/h 24.1 km/h 45 % 0.0 mm
17:42 29.1 °C 16.3 °C 1019.2 hPa NW 6.4 km/h 24.1 km/h 46 % 0.0 mm
17:47 29.2 °C 16.7 °C 1019.2 hPa NNE 17.7 km/h 27.4 km/h 47 % 0.0 mm
17:52 29.1 °C 16.0 °C 1019.2 hPa NE 12.9 km/h 27.4 km/h 45 % 0.0 mm
18:02 28.9 °C 16.5 °C 1019.2 hPa ENE 19.3 km/h 27.4 km/h 47 % 0.0 mm
18:07 29.1 °C 16.3 °C 1019.2 hPa NE 9.7 km/h 27.4 km/h 46 % 0.0 mm
18:12 29.0 °C 16.5 °C 1019.2 hPa ESE 6.4 km/h 27.4 km/h 47 % 0.0 mm
18:17 29.1 °C 16.3 °C 1019.2 hPa NNE 12.9 km/h 27.4 km/h 46 % 0.0 mm
18:22 28.9 °C 16.1 °C 1019.2 hPa NNE 6.4 km/h 27.4 km/h 46 % 0.0 mm
18:27 28.9 °C 16.1 °C 1019.2 hPa ENE 12.9 km/h 27.4 km/h 46 % 0.0 mm
18:32 28.7 °C 15.9 °C 1019.2 hPa North 11.3 km/h 29.0 km/h 46 % 0.0 mm
18:37 28.7 °C 15.9 °C 1019.2 hPa NE 17.7 km/h 29.0 km/h 46 % 0.0 mm
18:42 28.6 °C 16.5 °C 1019.2 hPa NNE 16.1 km/h 29.0 km/h 48 % 0.0 mm
18:47 28.6 °C 16.5 °C 1019.2 hPa NE 14.5 km/h 22.5 km/h 48 % 0.0 mm
18:52 28.6 °C 16.5 °C 1019.2 hPa NNW 9.7 km/h 25.7 km/h 48 % 0.0 mm
18:57 28.6 °C 16.5 °C 1019.2 hPa NNW 8.0 km/h 27.4 km/h 48 % 0.0 mm
19:02 28.5 °C 16.4 °C 1019.2 hPa NNE 14.5 km/h 27.4 km/h 48 % 0.0 mm
19:07 28.4 °C 16.0 °C 1019.2 hPa NNE 9.7 km/h 27.4 km/h 47 % 0.0 mm
19:12 28.4 °C 16.0 °C 1019.2 hPa NE 8.0 km/h 27.4 km/h 47 % 0.0 mm
19:17 28.3 °C 16.2 °C 1019.2 hPa North 6.4 km/h 25.7 km/h 48 % 0.0 mm
19:22 28.4 °C 16.3 °C 1019.2 hPa NNW 12.9 km/h 25.7 km/h 48 % 0.0 mm
19:32 28.2 °C 16.5 °C 1019.2 hPa ENE 4.8 km/h 20.9 km/h 49 % 0.0 mm
19:37 28.2 °C 16.5 °C 1019.2 hPa ENE 11.3 km/h 20.9 km/h 49 % 0.0 mm
19:42 28.0 °C 16.0 °C 1018.8 hPa NE 9.7 km/h 27.4 km/h 48 % 0.0 mm
19:47 27.8 °C 15.8 °C 1018.8 hPa NNE 17.7 km/h 29.0 km/h 48 % 0.0 mm
19:52 27.8 °C 15.8 °C 1019.2 hPa NE 17.7 km/h 29.0 km/h 48 % 0.0 mm
19:57 27.7 °C 16.0 °C 1019.2 hPa NE 16.1 km/h 29.0 km/h 49 % 0.0 mm
20:02 27.7 °C 15.7 °C 1019.2 hPa NE 14.5 km/h 29.0 km/h 48 % 0.0 mm
20:07 27.6 °C 15.9 °C 1019.2 hPa NE 19.3 km/h 27.4 km/h 49 % 0.0 mm
20:12 27.6 °C 15.9 °C 1019.2 hPa NNE 12.9 km/h 27.4 km/h 49 % 0.0 mm
20:17 27.4 °C 15.7 °C 1019.2 hPa NNE 16.1 km/h 27.4 km/h 49 % 0.0 mm
20:22 27.4 °C 16.1 °C 1018.8 hPa NE 12.9 km/h 22.5 km/h 50 % 0.0 mm
20:27 27.3 °C 16.0 °C 1019.2 hPa NNE 12.9 km/h 22.5 km/h 50 % 0.0 mm
20:32 27.2 °C 15.9 °C 1018.8 hPa NNE 12.9 km/h 22.5 km/h 50 % 0.0 mm
20:37 27.1 °C 15.8 °C 1018.8 hPa NNE 14.5 km/h 24.1 km/h 50 % 0.0 mm
20:42 27.0 °C 15.7 °C 1018.8 hPa NE 9.7 km/h 24.1 km/h 50 % 0.0 mm
20:47 26.9 °C 15.9 °C 1018.8 hPa NNE 8.0 km/h 20.9 km/h 51 % 0.0 mm
20:52 26.8 °C 16.1 °C 1018.8 hPa North 11.3 km/h 20.9 km/h 52 % 0.0 mm
20:57 26.6 °C 15.9 °C 1018.8 hPa North 3.2 km/h 16.1 km/h 52 % 0.0 mm
21:02 26.4 °C 15.8 °C 1018.8 hPa NE 4.8 km/h 16.1 km/h 52 % 0.0 mm
21:12 26.1 °C 15.8 °C 1019.2 hPa NNE 9.7 km/h 16.1 km/h 53 % 0.0 mm
21:22 25.9 °C 15.6 °C 1019.2 hPa North 9.7 km/h 20.9 km/h 53 % 0.0 mm
21:27 25.7 °C 15.7 °C 1019.2 hPa NNE 16.1 km/h 20.9 km/h 54 % 0.0 mm
21:32 25.5 °C 15.5 °C 1019.2 hPa NNE 16.1 km/h 20.9 km/h 54 % 0.0 mm
21:37 25.2 °C 15.5 °C 1019.2 hPa NE 4.8 km/h 17.7 km/h 55 % 0.0 mm
21:42 25.0 °C 15.6 °C 1019.2 hPa NE 11.3 km/h 17.7 km/h 56 % 0.0 mm
21:47 24.8 °C 15.4 °C 1019.2 hPa NNE 8.0 km/h 16.1 km/h 56 % 0.0 mm
21:52 24.7 °C 15.6 °C 1019.2 hPa NNE 6.4 km/h 14.5 km/h 57 % 0.0 mm
21:57 24.5 °C 15.7 °C 1019.2 hPa NE 6.4 km/h 14.5 km/h 58 % 0.0 mm
22:02 24.2 °C 15.7 °C 1019.2 hPa ENE 3.2 km/h 14.5 km/h 59 % 0.0 mm
22:07 23.9 °C 15.7 °C 1019.2 hPa NNE 6.4 km/h 12.9 km/h 60 % 0.0 mm
22:12 23.8 °C 15.6 °C 1019.2 hPa NE 9.7 km/h 12.9 km/h 60 % 0.0 mm
22:17 23.7 °C 15.7 °C 1019.5 hPa NNE 3.2 km/h 11.3 km/h 61 % 0.0 mm
22:22 23.4 °C 15.7 °C 1019.2 hPa NNE 8.0 km/h 11.3 km/h 62 % 0.0 mm
22:27 23.2 °C 15.5 °C 1019.5 hPa North 9.7 km/h 11.3 km/h 62 % 0.0 mm
22:32 23.0 °C 15.6 °C 1019.5 hPa NE 4.8 km/h 11.3 km/h 63 % 0.0 mm
22:37 23.1 °C 15.7 °C 1019.2 hPa NNE 11.3 km/h 14.5 km/h 63 % 0.0 mm
22:42 23.2 °C 15.8 °C 1019.5 hPa NE 9.7 km/h 14.5 km/h 63 % 0.0 mm
22:47 23.1 °C 15.7 °C 1019.5 hPa NNE 6.4 km/h 14.5 km/h 63 % 0.0 mm
22:52 22.8 °C 15.6 °C 1019.5 hPa NNE 6.4 km/h 14.5 km/h 64 % 0.0 mm
22:57 22.7 °C 15.5 °C 1019.5 hPa NE 6.4 km/h 12.9 km/h 64 % 0.0 mm
23:02 22.5 °C 15.6 °C 1019.5 hPa NE 11.3 km/h 12.9 km/h 65 % 0.0 mm
23:07 22.4 °C 15.5 °C 1019.5 hPa NNE 6.4 km/h 12.9 km/h 65 % 0.0 mm
23:12 22.2 °C 15.5 °C 1019.5 hPa NNE 9.7 km/h 12.9 km/h 66 % 0.0 mm
23:17 22.3 °C 15.6 °C 1019.5 hPa NNE 8.0 km/h 12.9 km/h 66 % 0.0 mm
23:22 22.2 °C 15.5 °C 1019.5 hPa NNE 4.8 km/h 11.3 km/h 66 % 0.0 mm
23:27 22.1 °C 15.4 °C 1019.5 hPa NNE 6.4 km/h 11.3 km/h 66 % 0.0 mm
23:32 21.8 °C 15.4 °C 1019.5 hPa NNE 4.8 km/h 11.3 km/h 67 % 0.0 mm
23:37 21.8 °C 15.4 °C 1019.5 hPa NNE 6.4 km/h 11.3 km/h 67 % 0.0 mm
23:42 22.0 °C 15.4 °C 1019.5 hPa NE 4.8 km/h 14.5 km/h 66 % 0.0 mm
23:47 22.0 °C 15.4 °C 1019.5 hPa NE 3.2 km/h 14.5 km/h 66 % 0.0 mm
23:52 22.0 °C 15.4 °C 1019.5 hPa NE 4.8 km/h 14.5 km/h 66 % 0.0 mm
23:57 21.9 °C 15.5 °C 1019.9 hPa NE 6.4 km/h 12.9 km/h 67 % 0.0 mm
Meteo18
Compliments of Weather Underground - 4 mb

Script developed by  Jim McMurry - jmcmurry@mwt.net Adapted for the template by  Wim van der Kuil - Leuven-Template.eu

You find our weather info also at:

European Weather Network

Weather Underground

Equipment we use:

Weather-station
Davis Vue

Weather-program
Meteohub

Weather-server
Raspberry PI 2 B+

Provider
1 and 1

Davis Vue

Meteohub

Raspberry PI 2 B+

1 and 1